Regional Weather Roundup
Issued by NWS

Home | Current Version | Previous Version | Graphics & Text | Print | Product List | Glossary On
Versions: 1 2 3 4 5 6 7 8 9 10 11 12 13 14 15 16 17 18 19 20 21 22 23 24 25 26 27 28 29 30 31 32 33 34 35 36 37 38 39 40 41 42 43 44 45 46 47 48 49 50
000
ASUS43 KMKX 261910
RWRWI

WISCONSIN REGIONAL WEATHER ROUNDUP
NATIONAL WEATHER SERVICE MILWAUKEE/SULLIVAN WI
200 PM CDT TUE MAY 26 2015

NOTE: "FAIR" INDICATES FEW OR NO CLOUDS BELOW 12,000 FEET WITH NO
SIGNIFICANT WEATHER AND/OR OBSTRUCTIONS TO VISIBILITY.

WIZ001-002-006>008-014>016-023>028-262000-
NORTHWEST WISCONSIN

CITY           SKY/WX    TMP DP  RH WIND       PRES   REMARKS
SUPERIOR ARPT  CLOUDY    58  53  82 E7        29.85S
ASHLAND        CLOUDY    57  54  89 NE8       29.84F
HAYWARD        LGT RAIN  58  53  84 N8        29.83R
SIREN          CLOUDY    58  55  89 NE8       29.81F
CUMBERLAND     LGT RAIN  59  55  88 N8        29.79F
RICE LAKE      DRIZZLE   64  60  85 N5        29.79F
CHETEK         LGT RAIN  65  61  89 CALM      29.77F
LADYSMITH      DRIZZLE   67  61  83 SE3       29.81R
EAU CLAIRE     LGT RAIN  65  60  84 N7        29.73F
MENOMONIE      RAIN      64  61  91 N6        29.75F
NEW RICHMOND   LGT RAIN  60  60 100 N9        29.78S
OSCEOLA        LGT RAIN  60  60 100 N6        29.80F
$$

WIZ003>005-009-010-017-018-262000-
NORTH CENTRAL WISCONSIN

CITY           SKY/WX    TMP DP  RH WIND       PRES   REMARKS
MANITOWISH WTR CLOUDY    66  61  84 SE3       29.81F
ARBOR VITAE    CLOUDY    67  60  78 NE3       29.81F
WOODRUFF       CLOUDY    67  60  78 NE3       29.81F
RHINELANDER    LGT RAIN  70  59  68 E5        29.80F
EAGLE RIVER    CLOUDY    70  59  67 E7        29.80F
LAND O LAKES   CLOUDY    68  60  74 CALM      29.82F
PHILLIPS       CLOUDY    65  61  86 CALM      29.80S
TOMAHAWK       CLOUDY    68  58  70 CALM      29.81S
MEDFORD        LGT RAIN  64  60  87 SW6       29.79F
MERRILL        RAIN      67  63  89 SW5       29.81R
$$

WIZ029-030-035-036-043>047-262000-
CENTRAL WISCONSIN

CITY           SKY/WX    TMP DP  RH WIND       PRES   REMARKS
WAUSAU         LGT RAIN  63  61  93 NE3       29.78F
MOSINEE        NOT AVBL
MARSHFIELD     LGT RAIN  65  60  84 NE10      29.75F
STEVENS POINT  RAIN      62  61  96 N5        29.79F
WAUPACA        HVY RAIN  70  69  97 NE6       29.76F
WAUTOMA        RAIN      64  64 100 CALM      29.76F FOG
WISC RAPIDS    RAIN      64  61  90 NE9       29.75F
CAMP DOUGLAS   NOT AVBL
$$

WIZ011>013-019>022-031-037>040-048>050-262000-
NORTHEAST WISCONSIN

CITY           SKY/WX    TMP DP  RH WIND       PRES   REMARKS
ANTIGO         HVY RAIN  65  63  93 W6        29.81R
SHAWANO        LGT RAIN  74  66  78 S6        29.78S
OCONTO         CLOUDY    66  66  98 SE13G18   29.81R
STURGEON BAY   CLOUDY    61  57  88 S10       29.85F
GREEN BAY      LGT RAIN  70  66  87 SE20      29.79F FOG
MANITOWOC      NOT AVBL
APPLETON       LGT RAIN  68  66  94 SE12      29.78F FOG
CLINTONVILLE   CLOUDY    70  66  88 S3        29.77F
OSHKOSH        LGT RAIN  69  65  86 E12       29.74F FOG
$$

WIZ032>034-041-042-053>061-262000-
SOUTHWEST WISCONSIN

CITY           SKY/WX    TMP DP  RH WIND       PRES   REMARKS
LA CROSSE      CLOUDY    69  62  78 NE7       29.68F
SPARTA         DRIZZLE   64  62  92 NW3G18    29.71F
VIROQUA        CLOUDY    65  65  99 NE12      29.69F
BOSCOBEL       PTSUNNY   73  67  81 VRB5      29.67F
PRAIRIE DU CHI PTSUNNY   68  67  95 SW7       29.66S
PLATTEVILLE    CLOUDY    71  65  81 S15       29.70F
$$

WIZ056-057-062-063-064-067-068-262000-
SOUTH CENTRAL WISCONSIN

CITY           SKY/WX    TMP DP  RH WIND       PRES   REMARKS
REEDSBURG      LGT RAIN  64  64  98 N8        29.69F
BARABOO/DELLS  CLOUDY    65  64  94 E9        29.70F
LONE ROCK      CLOUDY    69  64  84 E7        29.69F
MINERAL POINT  PTSUNNY   72  64  78 S14G26    29.71F
MADISON        CLOUDY    71  67  87 S14       29.69F
MIDDLETON      CLOUDY    68  67  98 SW3       29.71R
WATERTOWN      HVY RAIN  66  66 100 SE12      29.71F
MONROE         CLOUDY    70  63  78 S21G29    29.73F
JANESVILLE     PTSUNNY   75  63  64 SW23G29   29.73R
$$

WIZ051-052-058>065-066-070>072-262000-
SOUTHEAST WISCONSIN

CITY           SKY/WX    TMP DP  RH WIND       PRES   REMARKS
MILWAUKEE      RAIN      60  58  92 SE8       29.78F VSB 1
WAUKESHA       LGT RAIN  64  64 100 SE12G23   29.77F FOG
MILWAUKEE/TIMM RAIN      64  61  88 MISG      29.78F FOG
RACINE         HVY RAIN  62  60  93 SE16G23   29.78F VSB 1
BURLINGTON     LGT RAIN  66  64  94 S10G25    29.77S
KENOSHA        LGT RAIN  67  65  93 S10       29.77F FOG
FOND DU LAC    RAIN      68  64  87 SE13      29.75F FOG
SHEBOYGAN      LGT RAIN  62  61  96 SE7G17    29.80F FOG
WEST BEND      RAIN      64  61  88 SE10G16   29.78F
JUNEAU         LGT RAIN  66  65  95 E13       29.75F
$$

LSZ147-162-262000-
LAKE SUPERIOR

STATION/POSITION TIME  TEMP    WIND        PRES    WAVE
                       AIR SEA DIR/SP/G            HT/PER
                 (UTC) (F)     (DEG/KT/KT) (MB)    (FT/S)
W MID LAKE BUOY  1750   41 37  270/  4/  4   N/A     1
DEVILS ISLAND    1800   51     350/  5/  7   N/A
PORT WING        1840   46      30/  5/  7   N/A
SAXON HARBOR     1800   49        CALM       N/A
$$

LMZ867-665-643>646-262000-
LAKE MICHIGAN

STATION/POSITION TIME  TEMP    WIND        PRES    WAVE
                       AIR SEA DIR/SP/G            HT/PER
                 (UTC) (F)     (DEG/KT/KT) (MB)    (FT/S)
CHAMBERS ISLAND  1800   66     140/  9/ 16   N/A
N MID LAKE BUOY  1750   45 37  210/ 12/ 14   N/A     2/ 5
NORTHPORT PIER   1800   60     160/  9/ 16   N/A
SISTER BAY       1718   63     150/ 14/ 20   N/A
KEWAUNEE LAKESHO 1700   48     190/ 10/ 12   N/A
SHEBOYGAN LAKESH 1800   52     170/ 10/ 10   N/A
PORT WASHINGTON  1820   55     150/  2/ 15   N/A
ATWATER BUOY     1700   51 47  170/  4/  6   N/A
MILWAUKEE LAKESH 1700   54     150/  8/  9   N/A
S MID LAKE BUOY  1750   49 38  130/ 12/ 12   N/A     1/ 3
$$

TC  - TEMPERATURE IN CELSIUS
VSB - VISIBILITY IN STATUTE MILES
WCI - WIND CHILL INDEX
HX  - HEAT INDEX



USA.gov is the U.S. government's official web portal to all federal, state and local government web resources and services.